Regional Weather Roundup
Issued by NWS Upton, NY

Home | Current Version | Previous Version | Text Only | Print | Product List | Glossary On
Versions: 1 2 3 4 5 6 7 8 9 10 11 12 13 14 15 16 17 18 19 20 21 22 23 24 25 26 27 28
000
ASUS41 KOKX 192105
RWROKX

REGIONAL WEATHER ROUNDUP
NATIONAL WEATHER SERVICE NEW YORK NY
500 PM EDT SAT APR 19 2014

NOTE: "FAIR" INDICATES FEW OR NO CLOUDS BELOW 12,000 FEET WITH NO
SIGNIFICANT WEATHER AND/OR OBSTRUCTIONS TO VISIBILITY.

NYZ071-072-176-178-NJZ106-104-192200-
NEW YORK CITY METRO AREA


CITY           SKY/WX    TMP DP  RH WIND       PRES   REMARKS
CENTRAL PARK   MOSUNNY   67  22  18 NE9       30.25S
LAGUARDIA APRT PTSUNNY   65  22  19 NE9       30.23R
KENNEDY INTL   PTSUNNY   67  19  16 N12G26    30.23S
NEWARK/LIBERTY PTSUNNY   67  20  16 N6        30.22S
TETERBORO      MOSUNNY   68  23  18 N7        30.22R
$$

NYZ177-179-078>081-192200-
LONG ISLAND NEW YORK

CITY           SKY/WX    TMP DP  RH WIND       PRES   REMARKS
FARMINGDALE    PTSUNNY   63  25  23 N12G18    30.23S
ISLIP          PTSUNNY   65  26  23 N12       30.22R
SHIRLEY        PTSUNNY   63  25  23 N16G24    30.24R
WESTHAMPTON    PTSUNNY   64  26  23 NW13      30.24R
MONTAUK POINT    N/A     60  32  34 W7        30.23R
$$

NYZ052-065-067-192200-
HUDSON VALLEY

CITY           SKY/WX    TMP DP  RH WIND       PRES   REMARKS
WHITE PLAINS   MOSUNNY   63  21  20 NE15      30.23R
NEWBURGH       MOSUNNY   64  23  20 N12G21    30.25S
MONTGOMERY     SUNNY     64  22  20 N12       30.23S
POUGHKEEPSIE   SUNNY     63  23  21 N13G22    30.24S
ALBANY         MOSUNNY   60  25  26 N15G21    30.29S
$$

NJZ001-105-106-008-010-013-015-019>022-104-192200-
NEW JERSEY

CITY           SKY/WX    TMP DP  RH WIND       PRES   REMARKS
NEWARK/LIBERTY PTSUNNY   67  20  16 N6        30.22S
TETERBORO      MOSUNNY   68  23  18 N7        30.22R
CALDWELL       MOSUNNY   65  20  17 NE9G18    30.24S
MORRISTOWN     SUNNY     66  21  18 NE7G15    30.24R
SOMERVILLE     PTSUNNY   67  21  17 N10G17    30.21F
LINDEN         FAIR      69  21  16 NE7       30.25R
SUSSEX         MOSUNNY   65  22  19 N8        30.24F
ANDOVER          N/A     63  22  20 N9        30.24S
TRENTON        PTSUNNY   65  22  19 NE5       30.23S
MILLVILLE      PTSUNNY   61  43  51 S8        30.23R
ATLANTIC CITY  PTSUNNY   58  35  42 E10       30.25R
WRIGHTSTOWN    PTSUNNY   65  27  23 NE3       30.22R
TOMS RIVER     PTSUNNY   61  30  31 E3        30.25R
BELMAR         PTSUNNY   64  27  24 N6        30.23S
$$

PAZ047>061-062-071-192200-
EASTERN PENNSYLVANIA

CITY           SKY/WX    TMP DP  RH WIND       PRES   REMARKS
PHILADELPHIA   CLOUDY    66  20  17 N12       30.24S
ALLENTOWN      MOSUNNY   65  23  20 N16       30.25S
SCRANTON       MOSUNNY   59  23  25 N14G23    30.28S
$$

CTZ002-004>006-009-010-012-RIZ004-006-007-MAZ004-011-015-192200-
SOUTHERN NEW ENGLAND
 IN CT

CITY           SKY/WX    TMP DP  RH WIND       PRES   REMARKS
BRADLEY INTL   PTSUNNY   63  25  23 N16G23    30.22R
HARTFORD       SUNNY     64  27  24 N13G21    30.22S
DANBURY        SUNNY     61  27  27 NW10      30.25S
WTRBRY/OXFORD  MOSUNNY   61  30  31 N17G29    30.25R
BRIDGEPORT     MOSUNNY   65  27  23 N10       30.23R
MERIDEN        SUNNY     64  27  24 N14       30.23R
NEW HAVEN      MOSUNNY   65  27  23 N13       30.22R
CHESTER        FAIR      63  28  27 N12G22    30.22S
GROTON         MOSUNNY   65  28  24 NW14G21   30.20R
WILLIMANTIC    SUNNY     64  26  23 N10G24    30.22R

 IN RI

CITY           SKY/WX    TMP DP  RH WIND       PRES   REMARKS
PROVIDENCE     PTSUNNY   64  26  23 N20       30.21R
BLOCK ISLAND   MOSUNNY   59  30  33 NE6       30.22S
WESTERLY       MOSUNNY   65  28  24 N7        30.21R

 IN MA

CITY           SKY/WX    TMP DP  RH WIND       PRES   REMARKS
BOSTON         MOSUNNY   62  28  27 N18G25    30.22R
WORCESTER      SUNNY     58  26  29 NW17G25   30.22R
WESTFIELD      SUNNY     63  26  24 N15G26    30.22S
PROVINCETOWN   SUNNY     54  36  50 MISG      30.23R
NANTUCKET      MOSUNNY   57  33  40 N8        30.22R
$$

ANZ330-335-338-340-345-350-353-355-192200-
COASTAL MARINE OBSERVATIONS


STATION/POSITION TIME  SKY/WX   TEMP    WIND        PRES    VSBY  WAVE
                                AIR SEA DIR/SP/G                  HT/PER
                 (UTC)          (F)     (DEG/KT/KT) (MB)    (MI)  (FT/S)
NY HARB ENTRANCE 2100            50 47  360/  8/ 10 1024.0
4S FIRE IS       2000               48                N/A           3/10
23SW MTP         2100            46 44  230/  8/ 10 1023.3          3/10
HUDSON CANYON    2000            46 45  310/  2/  4 1024.2          5/10
EXECUTION ROCKS  2100            58 32  120/  6/  6   N/A
WESTERN LI SOUND 2100            59      30/  6/ 12   N/A           0
CENTRAL LI SOUND 2000            50 45  230/  6/  8   N/A           1/ 3
EASTERN LI SOUND NOT AVBL
ROBBINS REEF     2100            63      10/  5/  8   N/A
$$


>>>>>>>>>>>>>>>>>>>>>>>>>>>> KEY <<<<<<<<<<<<<<<<<<<<<<<<<<<
>                                                          <
>     SKY/WX - SKY CONDITION/PRESENT WEATHER               <
>     TMP    - TEMPERATURE IN FAHRENHEIT                   <
>     DP     - DEWPOINT IN FAHRENHEIT                      <
>     RH     - RELATIVE HUMIDITY IN PERCENT                <
>     WIND   - DIRECTION AND SPEED IN MPH                  <
>     PRES   - MEAN SEA LEVEL PRESSURE IN INCHES OF HG     <
>     WCI    - WIND CHILL INDEX                            <
>     VSB    - VISIBILITY IN MILES                         <
>     HX     - HEAT INDEX                                  <
>     TC     - TEMPERATURE IN CELSIUS                      <
>     VRB    - VARIABLE WIND DIRECTION                     <
>                                                          <
>>>>>>>>>>>>>>>>>>>>>>>>>>>> KEY <<<<<<<<<<<<<<<<<<<<<<<<<<<





USA.gov is the U.S. government's official web portal to all federal, state and local government web resources and services.